ATLAS 5 CENTAUR DEB, 49342

Orbit data source: Space-Track

ATLAS 5 CENTAUR DEB, 49342 is space debris in HEO originally from a launch on Wed, 17 Oct 2018 UTC launched from the Air Force Eastern Test Range (AFETR). Debris objects in space refer to the collection of defunct objects orbiting the Earth. Examples of debris include non-operational satellites, rocket bodies, and fragments generated from explosions, collisions, or faulty payload assembly.

Loading next visibility...
Identifier
49342, 2018-079ET
Orbit
HEO
Country
Flag of USUS
Related business
Flag of USUnited Launch Alliance/Lockheed Martin (US)
Manufacturer
ULA Decatur
Mission
Spacecraft
Bus & Motor
Unknown
Mass
Unknown
Launch date (UTC)
2018-10-17 (8 years ago)
Launch vehicle
Unknown
Launch site
Air Force Eastern Test Range (AFETR)
Object type
Payload
Rocket body
Debris
Shape & HBR
Unknown shape, 1.1 m
Radar Cross Section
RCS unknown

Expand to show TLE details & history
Last TLE update: 1 week ago

TLE from 1 week ago
0 ATLAS 5 CENTAUR DEB
1 49342U 18079ET  26229.90866750 -.00000142  00000-0  00000-0 0  9997
2 49342  13.4145  19.8749 4763327 348.9928   3.3247  1.84616453 33503
Epoch: 2026-08-17T21:48Z
TLE epoch observation values (Epoch: 2026-08-17T21:48:28.871Z)
Latitude
0.00003°
Longitude
86.49247°
Altitude
8,406.792 km
Speed
6.302 km/s
True Right ascension
01h 19m 35s
True Declination
0° 00' 00"
Sunlit
Object was in daylight at epoch
Visualization orbit readout
Latitude
Unknown
Longitude
Unknown
Altitude
Unknown
Speed
Unknown
Apparent Right ascension
Unknown
Apparent Declination
Unknown
Sunlit
N/A
Visualization observer readout
Local Sidereal Time
21:10:53
Azimuth
Unknown
Elevation
Unknown
Doppler factor
Unknown
Orbital elements
Apogee altitude
35,063.692 km
Perigee altitude
8,321.619 km
Semi-major axis
28,070.792 km
Eccentricity
0.47633
Inclination
13.4145°
RAAN
19.8749°
Arg. of periapsis
348.9928°
True anomaly
10.62073°
Mean anomaly
3.3247°
Eccentric anomaly
6.33713°
Mean motion
0.46149 °/min
Orbital period
780.08 mins
BSTAR
0
Loading maneuver chart data...
Computing Atmospheric mass density...

Documentation

Showing up to 5 results
|